Date String (YYYY-MM-DD hh:mm:ss) UTC,Instrument flags,Ambient pressure (hPa),Sample flow (lpm),Bypass flow (lpm),Sample temperature (°C),Ambient temperature (°C),ASC tube jacket temperature (°C),LED temperature (°C),Box temperature (°C),Sample RH (%),Span deviation,Mass concentration (μg/m³),Mass concentration (μg/m³),Mass concentration (μg/m³)
DateTimeUTC,F1_M11,P_M11,Q1_M11,Q2_M11,T1_M11,T2_M11,T3_M11,T4_M11,T5_M11,U1_M11,ZSPAN_M11,X0_M11,X2_M11,X1_M11
2023-05-19 01:00:00,,0833.7,5.00,0.00,29.7,28.1,00.0,38.0,31.2,27.5,0002.4,0015.01,0009.70,0008.77
2023-05-19 01:01:00,,0833.8,5.01,0.00,29.7,28.1,00.0,38.0,31.2,27.5,0002.5,0015.01,0009.67,0008.74
2023-05-19 01:02:00,,0833.7,4.99,0.00,29.7,28.1,00.0,38.0,31.2,27.4,0002.3,0014.93,0009.64,0008.73
2023-05-19 01:03:00,,0833.7,5.00,0.00,29.6,28.0,00.0,38.0,31.2,27.4,0002.1,0014.83,0009.61,0008.73
2023-05-19 01:04:00,,0833.8,5.01,0.00,29.6,28.0,00.0,38.0,31.2,27.5,0001.7,0014.86,0009.62,0008.74
2023-05-19 01:05:00,,0833.8,4.99,0.00,29.7,28.1,00.0,38.0,31.2,27.5,0001.7,0014.69,0009.59,0008.73
2023-05-19 01:06:00,,0833.7,4.99,0.00,29.7,28.1,00.0,38.0,31.2,27.6,0001.6,0014.06,0009.57,0008.72
2023-05-19 01:07:00,,0833.8,5.00,0.00,29.7,28.0,00.0,38.0,31.2,27.6,0001.9,0014.10,0009.57,0008.73
2023-05-19 01:08:00,,0833.8,5.01,0.00,29.7,28.1,00.0,38.0,31.2,27.6,0002.0,0014.14,0009.57,0008.76
2023-05-19 01:09:00,,0833.8,5.00,0.00,29.7,28.1,00.0,38.0,31.2,27.6,0002.1,0014.17,0009.59,0008.77
2023-05-19 01:10:00,,0833.8,4.98,0.00,29.7,28.1,00.0,38.0,31.2,27.5,0002.4,0014.05,0009.58,0008.78
2023-05-19 01:11:00,,0833.8,5.01,0.00,29.7,28.1,00.0,38.0,31.2,27.6,0002.5,0014.10,0009.62,0008.81
2023-05-19 01:12:00,,0833.8,5.00,0.00,29.7,28.1,00.0,38.0,31.3,27.7,0002.3,0014.14,0009.64,0008.84
2023-05-19 01:13:00,,0833.9,4.98,0.00,29.7,28.1,00.0,38.0,31.2,27.7,0002.3,0014.33,0009.71,0008.86
2023-05-19 01:14:00,,0833.9,5.01,0.00,29.7,28.1,00.0,38.0,31.2,27.7,0002.3,0014.40,0009.74,0008.90
2023-05-19 01:15:00,,0833.9,5.01,0.00,29.7,28.1,00.0,38.0,31.3,27.7,0002.6,0014.50,0009.79,0008.94
2023-05-19 01:16:00,,0833.9,5.00,0.00,29.7,28.1,00.0,38.0,31.3,27.7,0002.4,0014.61,0009.88,0009.02
2023-05-19 01:17:00,,0833.9,5.00,0.00,29.7,28.1,00.0,38.0,31.3,27.6,0002.5,0014.77,0009.99,0009.10
2023-05-19 01:18:00,,0833.9,4.99,0.00,29.7,28.1,00.0,38.0,31.3,27.5,0002.6,0014.88,0010.10,0009.16
2023-05-19 01:19:00,,0833.9,5.00,0.00,29.7,28.1,00.0,38.0,31.3,27.5,0002.3,0014.92,0010.18,0009.22
2023-05-19 01:20:00,,0833.9,5.02,0.00,29.7,28.1,00.0,38.0,31.3,27.6,0002.0,0014.95,0010.22,0009.27
2023-05-19 01:21:00,,0833.9,4.99,0.00,29.7,28.1,00.0,38.0,31.2,27.8,0001.6,0015.08,0010.29,0009.34
2023-05-19 01:22:00,,0833.9,4.99,0.00,29.7,28.1,00.0,38.0,31.2,27.9,0001.5,0015.20,0010.38,0009.42
2023-05-19 01:23:00,,0833.9,5.02,0.00,29.7,28.1,00.0,38.0,31.2,27.8,0001.7,0015.27,0010.44,0009.50
2023-05-19 01:24:00,,0833.9,5.00,0.00,29.7,28.1,00.0,38.0,31.3,27.8,0001.7,0015.22,0010.44,0009.54
2023-05-19 01:25:00,,0833.9,5.00,0.00,29.7,28.1,00.0,38.0,31.3,27.8,0001.9,0015.28,0010.49,0009.58
2023-05-19 01:26:00,,0833.9,5.01,0.00,29.7,28.1,00.0,38.0,31.3,27.9,0002.0,0015.27,0010.48,0009.57
2023-05-19 01:27:00,,0833.9,5.01,0.00,29.7,28.1,00.0,38.0,31.3,27.8,0002.3,0015.20,0010.42,0009.54
2023-05-19 01:28:00,,0833.8,4.99,0.00,29.7,28.1,00.0,38.0,31.3,27.9,0002.3,0015.32,0010.43,0009.56
2023-05-19 01:29:00,,0833.9,5.00,0.00,29.7,28.1,00.0,38.1,31.3,27.8,0002.2,0015.36,0010.44,0009.58
2023-05-19 01:30:00,,0833.9,5.01,0.00,29.7,28.1,00.0,38.1,31.3,27.7,0002.1,0015.35,0010.45,0009.60
2023-05-19 01:31:00,,0833.9,5.01,0.00,29.7,28.1,00.0,38.1,31.3,27.7,0002.7,0015.40,0010.51,0009.64
2023-05-19 01:32:00,,0833.9,5.01,0.00,29.7,28.1,00.0,38.1,31.3,27.7,0002.8,0015.40,0010.51,0009.64
2023-05-19 01:33:00,,0833.9,4.99,0.00,29.7,28.1,00.0,38.1,31.3,27.8,0002.3,0015.43,0010.51,0009.62
2023-05-19 01:34:00,,0833.9,5.00,0.00,29.7,28.1,00.0,38.1,31.3,27.8,0001.8,0015.50,0010.49,0009.60
2023-05-19 01:35:00,,0833.9,5.01,0.00,29.7,28.1,00.0,38.1,31.3,27.8,0001.8,0015.57,0010.53,0009.60
2023-05-19 01:36:00,,0833.9,5.01,0.00,29.7,28.1,00.0,38.1,31.3,27.8,0001.6,0015.51,0010.48,0009.58
2023-05-19 01:37:00,,0833.9,4.99,0.00,29.7,28.1,00.0,38.1,31.3,27.7,0001.5,0015.42,0010.46,0009.57
2023-05-19 01:38:00,,0834.0,5.01,0.00,29.7,28.1,00.0,38.1,31.3,27.6,0001.3,0015.51,0010.48,0009.59
2023-05-19 01:39:00,,0834.0,5.00,0.00,29.7,28.1,00.0,38.1,31.3,27.5,0000.9,0015.42,0010.43,0009.56
2023-05-19 01:40:00,,0833.9,4.98,0.00,29.7,28.1,00.0,38.1,31.3,27.6,0000.6,0015.84,0010.34,0009.51
2023-05-19 01:41:00,,0833.9,5.01,0.00,29.7,28.1,00.0,38.1,31.3,27.6,0000.7,0015.73,0010.27,0009.47
2023-05-19 01:42:00,,0834.0,5.00,0.00,29.7,28.1,00.0,38.1,31.3,27.6,0000.6,0015.78,0010.25,0009.44
2023-05-19 01:43:00,,0834.0,4.99,0.00,29.7,28.1,00.0,38.1,31.3,27.6,0000.5,0015.73,0010.24,0009.43
2023-05-19 01:44:00,,0834.0,4.99,0.00,29.7,28.1,00.0,38.1,31.3,27.6,0001.2,0015.53,0010.15,0009.39
2023-05-19 01:45:00,,0834.0,5.01,0.00,29.7,28.1,00.0,38.1,31.3,27.5,0001.3,0015.38,0010.11,0009.35
2023-05-19 01:46:00,,0834.0,5.00,0.00,29.7,28.1,00.0,38.1,31.3,27.4,0001.1,0015.36,0010.11,0009.33
2023-05-19 01:47:00,,0834.0,5.00,0.00,29.7,28.1,00.0,38.1,31.3,27.4,0001.7,0015.31,0010.12,0009.34
2023-05-19 01:48:00,,0834.0,5.00,0.00,29.7,28.1,00.0,38.1,31.3,27.4,0001.9,0015.22,0010.09,0009.32
2023-05-19 01:49:00,,0834.0,4.99,0.00,29.7,28.1,00.0,38.1,31.3,27.4,0002.0,0015.09,0010.05,0009.28
2023-05-19 01:50:00,,0834.0,5.00,0.00,29.7,28.1,00.0,38.1,31.3,27.5,0002.2,0015.02,0010.04,0009.29
2023-05-19 01:51:00,,0834.0,5.01,0.00,29.7,28.1,00.0,38.1,31.3,27.5,0002.3,0014.46,0010.10,0009.33
2023-05-19 01:52:00,,0834.0,4.99,0.00,29.7,28.1,00.0,38.1,31.3,27.6,0002.4,0014.61,0010.19,0009.38
2023-05-19 01:53:00,,0834.1,4.99,0.00,29.7,28.1,00.0,38.1,31.3,27.5,0002.5,0014.94,0010.19,0009.40
2023-05-19 01:54:00,,0834.1,5.01,0.00,29.7,28.1,00.0,38.1,31.3,27.6,0002.5,0015.53,0010.17,0009.38
2023-05-19 01:55:00,,0834.1,5.01,0.00,29.7,28.1,00.0,38.1,31.3,27.5,0002.5,0015.54,0010.16,0009.40
2023-05-19 01:56:00,,0834.1,5.00,0.00,29.7,28.1,00.0,38.1,31.3,27.6,0002.9,0015.61,0010.20,0009.42
2023-05-19 01:57:00,,0834.2,4.99,0.00,29.7,28.1,00.0,38.1,31.3,27.6,0003.2,0015.59,0010.22,0009.47
2023-05-19 01:58:00,,0834.2,5.00,0.00,29.7,28.1,00.0,38.1,31.3,27.5,0003.1,0015.51,0010.19,0009.48
2023-05-19 01:59:00,,0834.2,5.01,0.00,29.7,28.1,00.0,38.1,31.3,27.6,0002.9,0015.64,0010.25,0009.53
